Date String (YYYY-MM-DD hh:mm:ss) UTC,Instrument flags,Ambient pressure (hPa),Sample flow (lpm),Bypass flow (lpm),Sample temperature (°C),Ambient temperature (°C),ASC tube jacket temperature (°C),LED temperature (°C),Box temperature (°C),Sample RH (%),Span deviation,Mass concentration (μg/m³),Mass concentration (μg/m³),Mass concentration (μg/m³)
DateTimeUTC,F1_M11,P_M11,Q1_M11,Q2_M11,T1_M11,T2_M11,T3_M11,T4_M11,T5_M11,U1_M11,ZSPAN_M11,X2_M11,X0_M11,X1_M11
2023-05-18 01:00:00,,0827.7,5.01,0.00,29.4,27.7,00.0,37.7,31.1,20.1,0000.0,0004.62,0010.32,0003.50
2023-05-18 01:01:00,,0827.7,5.01,0.00,29.4,27.8,00.0,37.7,31.1,19.4,0000.0,0004.67,0010.67,0003.51
2023-05-18 01:02:00,,0827.7,4.98,0.00,29.4,28.0,00.0,37.7,31.2,19.1,0000.0,0004.70,0010.81,0003.52
2023-05-18 01:03:00,,0827.7,5.00,0.00,29.5,28.1,00.0,37.7,31.2,18.7,0000.0,0004.66,0010.71,0003.52
2023-05-18 01:04:00,,0827.7,5.01,0.00,29.5,28.2,00.0,37.7,31.3,18.6,0000.0,0004.58,0010.13,0003.52
2023-05-18 01:05:00,,0827.8,5.00,0.00,29.5,28.3,00.0,37.8,31.3,18.3,0000.0,0004.52,0009.85,0003.51
2023-05-18 01:06:00,,0827.7,5.01,0.00,29.6,28.3,00.0,37.8,31.3,18.3,0000.0,0004.54,0010.15,0003.50
2023-05-18 01:07:00,,0827.8,4.99,0.00,29.6,27.6,00.0,37.8,31.2,18.4,0000.0,0004.55,0010.71,0003.50
2023-05-18 01:08:00,,0827.7,4.99,0.00,29.5,26.0,00.0,37.7,31.0,18.8,0000.0,0004.54,0011.11,0003.49
2023-05-18 01:09:00,,0827.7,5.01,0.00,29.5,25.6,00.0,37.6,30.8,18.8,0000.0,0004.54,0011.45,0003.50
2023-05-18 01:10:00,,0827.7,5.01,0.00,29.4,25.8,00.0,37.6,30.8,18.9,0000.0,0004.55,0011.96,0003.51
2023-05-18 01:11:00,,0827.7,5.00,0.00,29.3,26.1,00.0,37.6,30.8,18.8,0000.0,0004.54,0012.39,0003.50
2023-05-18 01:12:00,,0827.7,5.00,0.00,29.3,26.4,00.0,37.6,30.9,18.5,0000.0,0004.53,0011.95,0003.50
2023-05-18 01:13:00,,0827.8,5.01,0.00,29.3,26.7,00.0,37.6,30.9,18.6,0000.0,0004.50,0011.95,0003.48
2023-05-18 01:14:00,,0827.7,5.00,0.00,29.3,27.0,00.0,37.6,30.9,18.3,0000.0,0004.51,0012.03,0003.48
2023-05-18 01:15:00,,0827.8,4.99,0.00,29.3,27.3,00.0,37.7,31.0,18.3,0000.0,0004.55,0012.54,0003.49
2023-05-18 01:16:00,,0827.8,5.01,0.00,29.3,27.4,00.0,37.7,31.0,18.1,0000.0,0004.59,0012.65,0003.50
2023-05-18 01:17:00,,0827.8,4.99,0.00,29.4,27.6,00.0,37.7,31.0,18.0,0000.0,0004.57,0012.60,0003.51
2023-05-18 01:18:00,,0827.7,5.00,0.00,29.4,27.8,00.0,37.7,31.1,18.1,0000.0,0004.56,0012.04,0003.50
2023-05-18 01:19:00,,0827.7,5.00,0.00,29.4,27.9,00.0,37.7,31.1,18.0,0000.0,0004.54,0012.35,0003.50
2023-05-18 01:20:00,,0827.7,5.00,0.00,29.4,28.0,00.0,37.7,31.1,17.9,0000.0,0004.54,0012.06,0003.49
2023-05-18 01:21:00,,0827.7,5.00,0.00,29.5,28.1,00.0,37.7,31.2,17.9,0000.0,0004.49,0011.60,0003.49
2023-05-18 01:22:00,,0827.7,4.99,0.00,29.5,28.2,00.0,37.7,31.2,18.3,0000.0,0004.49,0011.18,0003.48
2023-05-18 01:23:00,,0827.8,5.00,0.00,29.5,28.2,00.0,37.8,31.3,18.7,0000.0,0004.48,0011.12,0003.48
2023-05-18 01:24:00,,0827.8,5.00,0.00,29.6,28.2,00.0,37.8,31.3,18.9,0000.0,0004.47,0010.66,0003.49
2023-05-18 01:25:00,,0827.9,5.00,0.00,29.6,26.7,00.0,37.7,31.1,19.2,0000.0,0004.51,0010.70,0003.50
2023-05-18 01:26:00,,0827.8,5.01,0.00,29.5,25.5,00.0,37.6,30.9,19.4,0000.0,0004.52,0010.39,0003.50
2023-05-18 01:27:00,,0827.8,5.01,0.00,29.4,25.5,00.0,37.6,30.7,20.2,0000.0,0004.54,0010.46,0003.51
2023-05-18 01:28:00,,0827.8,5.01,0.00,29.3,25.8,00.0,37.6,30.7,20.3,0000.0,0004.54,0010.92,0003.51
2023-05-18 01:29:00,,0827.8,5.00,0.00,29.3,26.1,00.0,37.6,30.7,20.4,0000.0,0004.57,0011.42,0003.52
2023-05-18 01:30:00,,0827.8,4.99,0.00,29.3,26.4,00.0,37.6,30.8,20.6,0000.0,0004.58,0010.78,0003.54
2023-05-18 01:31:00,,0827.8,5.00,0.00,29.3,26.8,00.0,37.6,30.8,20.5,0000.0,0004.59,0010.50,0003.56
2023-05-18 01:32:00,,0827.8,5.01,0.00,29.3,27.0,00.0,37.6,30.9,20.2,0000.0,0004.61,0010.22,0003.58
2023-05-18 01:33:00,,0827.9,5.00,0.00,29.3,27.2,00.0,37.6,30.9,20.0,0000.0,0004.60,0009.96,0003.58
2023-05-18 01:34:00,,0827.9,5.01,0.00,29.3,27.4,00.0,37.6,31.0,20.2,0000.0,0004.57,0009.80,0003.59
2023-05-18 01:35:00,,0827.9,5.00,0.00,29.3,27.6,00.0,37.6,31.0,19.9,0000.0,0004.63,0010.24,0003.59
2023-05-18 01:36:00,,0827.9,4.99,0.00,29.3,27.7,00.0,37.6,31.0,20.0,0000.0,0004.63,0010.23,0003.59
2023-05-18 01:37:00,,0828.0,5.00,0.00,29.4,27.9,00.0,37.7,31.1,20.6,0000.0,0004.64,0010.17,0003.61
2023-05-18 01:38:00,,0828.0,5.01,0.00,29.4,28.0,00.0,37.7,31.1,20.7,0000.0,0004.64,0009.97,0003.62
2023-05-18 01:39:00,,0828.1,5.01,0.00,29.4,28.0,00.0,37.7,31.1,20.6,0000.0,0004.63,0009.45,0003.63
2023-05-18 01:40:00,,0828.1,5.01,0.00,29.5,28.1,00.0,37.7,31.1,20.4,0000.0,0004.59,0008.59,0003.62
2023-05-18 01:41:00,,0828.1,4.98,0.00,29.5,28.2,00.0,37.7,31.2,20.0,0000.0,0004.61,0008.64,0003.63
2023-05-18 01:42:00,,0828.1,5.00,0.00,29.5,28.2,00.0,37.7,31.2,20.1,0000.0,0004.61,0008.63,0003.63
2023-05-18 01:43:00,,0828.1,5.01,0.00,29.5,28.3,00.0,37.8,31.3,19.8,0000.0,0004.56,0008.60,0003.62
2023-05-18 01:44:00,,0828.1,5.00,0.00,29.6,28.3,00.0,37.8,31.3,19.9,0000.0,0004.53,0008.90,0003.62
2023-05-18 01:45:00,,0828.0,4.98,0.00,29.6,28.1,00.0,37.8,31.3,20.1,0000.0,0004.58,0009.86,0003.62
2023-05-18 01:46:00,,0828.0,5.00,0.00,29.6,26.3,00.0,37.7,31.0,20.1,0000.0,0004.56,0011.16,0003.61
2023-05-18 01:47:00,,0828.0,5.01,0.00,29.5,25.4,00.0,37.7,30.9,20.2,0000.0,0004.52,0011.11,0003.62
2023-05-18 01:48:00,,0828.0,5.01,0.00,29.4,25.5,00.0,37.6,30.7,20.4,0000.0,0004.50,0011.12,0003.61
2023-05-18 01:49:00,,0827.9,4.99,0.00,29.3,25.8,00.0,37.6,30.7,20.7,0000.0,0004.48,0011.16,0003.62
2023-05-18 01:50:00,,0828.0,5.00,0.00,29.3,26.1,00.0,37.6,30.7,20.6,0000.0,0004.46,0011.12,0003.61
2023-05-18 01:51:00,,0827.9,5.00,0.00,29.3,26.4,00.0,37.6,30.8,20.8,0000.0,0004.49,0011.50,0003.63
2023-05-18 01:52:00,,0828.0,5.01,0.00,29.3,26.7,00.0,37.6,30.8,20.6,0000.0,0004.49,0011.95,0003.63
2023-05-18 01:53:00,,0828.0,4.99,0.00,29.3,27.0,00.0,37.6,30.9,20.8,0000.0,0004.49,0012.01,0003.63
2023-05-18 01:54:00,,0828.1,4.99,0.00,29.3,27.2,00.0,37.6,30.9,20.6,0000.0,0004.51,0012.09,0003.63
2023-05-18 01:55:00,,0828.0,4.99,0.00,29.3,27.4,00.0,37.6,30.9,20.0,0000.0,0004.57,0012.18,0003.64
2023-05-18 01:56:00,,0828.0,5.00,0.00,29.3,27.6,00.0,37.6,31.0,19.4,0000.0,0004.58,0011.22,0003.64
2023-05-18 01:57:00,,0828.1,5.00,0.00,29.3,27.7,00.0,37.6,31.0,18.6,0000.0,0004.55,0009.93,0003.65
2023-05-18 01:58:00,,0828.0,5.01,0.00,29.3,27.8,00.0,37.7,31.0,18.6,0000.0,0004.54,0009.43,0003.63
2023-05-18 01:59:00,,0828.0,5.00,0.00,29.4,27.9,00.0,37.7,31.1,18.0,0000.0,0004.51,0009.30,0003.62
